Pagrindinis puslapis
METAR-TAF:

METAR-TAF

Oro uostai :

Midland, Teksasas, Jungtinės Amerikos Valstijos

platuma: 32-02-11N, ilguma: 102-06-03W, Aukštis: 854 m

Dabartinis oras

Ataskaita buvo paskelbta 12 minutes, ne 04:35 UTC
Vėjas 17 kt iš Pietų/Pietryčių
Temperatūra 29°C
Drėgmė 52%
Slėgis 1014 hPa
Matomumas: 16.1 km
Giedras dangus

METAR: KMDD 250435Z AUTO 16017KT 10SM CLR 29/18 A2994 RMK AO2 T02890184

Laikas: 23:47 (04:47 UTC)


TAF: trūkstamas

Orai ataskaitas ir orų prognozės (METAR, TAF).

turimą stotys yra geltonos ir raudonos taškus žemėlapyje.

Perkelti pele per norėdami pamatyti stoties vardą.

Tada spustelėkite, norėdami matyti oro stebėjimo ir prognozės.

Norėdami pakeisti žemėlapį: spustelėkite ant žalios mygtukų su juodo kryžiaus žemyn,; žalią mygtuką su brūkšneliu, jei norite nutolinti; arba žalių rodyklių gretimoms žemėlapius.


METAR-TAF: